Погода в Болеславце

Польша     51°16′29″N   15°33′46″E
темп.,
°C
ветер,
м/с
пор.,
м/с
влажн.,
%
обл.,
%
осадки,
мм/ч
давл.,
гПа
погр.,
м
1 марта, пн
пн101:00+4сз348897 0.0 1036403
04:00+3ссз1185100 0.0 1036282
07:00+1с119481 0.0 103621
10:00+5ююз01757 0.0 1037382
13:00+9св10604 0.0 1036496
16:00+9всв11590 0.0 1035490
19:00+6вюв11790 0.0 103522
22:00+5ю12830 0.0 103522
2 марта, вт
вт201:00+4зюз11860 0.0 103622
04:00+3юз11880 0.0 103422
07:00+3зюз22870 0.0 103522
10:00+8з23650 0.0 1035260
13:00+12зсз22500 0.0 1034553
16:00+12сз11490 0.0 1033625
19:00+7св11690 0.0 103322
22:00+6юв11750 0.0 103322
3 марта, ср
ср301:00+5вюв12800 0.0 103322
04:00+4юв12830 0.0 103222
07:00+3юз11830 0.0 103122
10:00+9зюз11570 0.0 1031238
13:00+13ююз01450 0.0 1028606
16:00+12з33480 0.0 1025709
19:00+7зюз48660 0.0 1025167
22:00+6юз496724 0.0 1023195
4 марта, чт
чт401:00+5зюз597452 0.0 1021213
04:00+5зюз498032 0.0 1020216
07:00+4зюз5108246 0.0 1018286
10:00+7з597783 0.0 1017496
13:00+9з597892 0.0 1016829
16:00+8зсз3781100 0.1 1013620
19:00+7з2694100 0.9 1013250
22:00+6з2487100 0.2 1012148
5 марта, пт
пт501:00+6зсз2488100 0.3 1011232
04:00+4ссз4692100 1.1 1010503
07:00+2с4696100 2.3 1012382
10:00+1ссв6982100 1.1 1015774
13:00+1ссв5881100 1.4 1018820
16:00+2с5754100 0.3 10201687
19:000ссз376888 0.5 1023233
22:00−1с497493 0.1 1027579